Observations for Trim Market St
| Time | AQI | Temp °C | Hum % | Pres Pa | CO μg/m³ | H₂S μg/m³ | NO μg/m³ | NO₂ μg/m³ | O₃ μg/m³ | SO₂ μg/m³ | PM1 μg/m³ | PM2.5 μg/m³ | PM10 μg/m³ |
|---|---|---|---|---|---|---|---|---|---|---|---|---|---|
| Tuesday 18 August 2026 | |||||||||||||
| 07:53 | 2 | 19 | 75 | 29,447 | 0.26 | 0 | 3.04 | 6.12 | 39.88 | 0 | 0 | 0.89 | 2.76 |
| 07:51 | 2 | 18.9 | 76 | 26,059 | 0.26 | 0 | 3.41 | 15.13 | 33.96 | 0 | 0 | 1.83 | 3.97 |
| 07:50 | 2 | 18.9 | 76 | 24,956 | 0.29 | 0 | 3.57 | 16.95 | 33.98 | 0 | 0 | 0.87 | 2.79 |
| 07:47 | 2 | 18.7 | 76 | 20,587 | 0.37 | 0 | 2.6 | 12.72 | 42.86 | 0 | 0 | 1.33 | 3.4 |
| 07:42 | 2 | 18.5 | 77 | 10,892 | 0.24 | 0 | 3.42 | 8.45 | 45.12 | 0 | 0 | 1.77 | 4.02 |
| 07:41 | 2 | 18.4 | 77 | 8,410 | 0.3 | 0 | 2.79 | 12.94 | 48.67 | 0 | 0 | 1.29 | 3.44 |
| 07:40 | 2 | 18.4 | 77 | 5,973 | 0.34 | 0 | 2.45 | 17.87 | 35.53 | 0 | 0 | 0.81 | 2.86 |
| 07:39 | 2 | 18.3 | 77 | 3,742 | 0.26 | 0 | 2.5 | 15.94 | 52.38 | 0 | 0 | 1.28 | 3.45 |
| 07:38 | 2 | 18.3 | 78 | 1,347 | 0.26 | 0 | 2.31 | 10.39 | 48.14 | 0 | 0 | 0.8 | 2.88 |
| 07:37 | 2 | 18.3 | 78 | 2,147,483,647 | 0.27 | 0 | 2.23 | 6.48 | 44.34 | 0 | 0 | 1.74 | 4.05 |
| 07:36 | 2 | 18.2 | 78 | 2,147,483,647 | 0.28 | 0 | 2.17 | 11.92 | 57.19 | 0 | 0 | 1.26 | 3.47 |
| 07:34 | 2 | 18.1 | 78 | 2,147,483,647 | 0.27 | 0 | 1.98 | 7.16 | 59.42 | 0 | 0.71 | 2.19 | 5.22 |
| 07:33 | 2 | 18 | 78 | 2,147,483,647 | 0.27 | 0 | 2.05 | 6.54 | 57.57 | 0 | 0 | 0.77 | 2.91 |
| 07:31 | 2 | 17.9 | 78 | 2,147,483,647 | 0.26 | 0 | 2.12 | 7.71 | 59.11 | 0 | 0.71 | 1.24 | 4.07 |
| 07:30 | 2 | 17.9 | 79 | 2,147,483,647 | 0.27 | 0 | 2.49 | 11.16 | 50.86 | 0 | 1.43 | 2.18 | 4.65 |
| 07:29 | 2 | 17.8 | 79 | 2,147,483,647 | 0.23 | 0 | 2.11 | 12.86 | 53.39 | 0 | 0.71 | 2.18 | 4.65 |
| 07:26 | 2 | 17.7 | 79 | 2,147,483,647 | 0.22 | 0 | 1.95 | 12.19 | 59.73 | 0 | 0 | 1.7 | 4.08 |
| 07:25 | 2 | 17.7 | 79 | 2,147,483,647 | 0.2 | 0 | 1.96 | 5.6 | 61.06 | 0 | 0 | 1.69 | 4.66 |
| 07:24 | 2 | 17.7 | 79 | 2,147,483,647 | 0.21 | 0 | 1.93 | 5.54 | 59.36 | 0 | 0 | 1.21 | 3.51 |
| 07:21 | 2 | 17.6 | 79 | 2,147,483,647 | 0.2 | 0 | 1.93 | 14.55 | 54.23 | 0 | 0.71 | 2.15 | 5.24 |